User: anonymous
Location: Caltech
(34.1382°N, 118.1253°W)
Time: 18:42:36
(UTC-07:00)
Language:

Cosmos 2251 Rocket - Orbit

View from above orbital plane
View from above orbital plane
View from above satellite
View from above satellite

Ground track
Ground track

The orbit data is extracted from the following two-line orbital elements,

1 22676U 93036B   14212.73644320  .00000080  00000-0  38398-4 0  2810
2 22676 074.0446 304.5013 0019482 231.6521 128.2880 14.33623913104649
Epoch (UTC): 31 July 2014 17:40:28
Eccentricity: 0.0019482
inclination: 74.0446°
perigee height: 766 km
apogee height: 793 km
right ascension of ascending node: 304.5013°
argument of perigee: 231.6521°
revolutions per day: 14.33623913
mean anomaly at epoch: 128.2880°
orbit number at epoch: 10464

The dashed part of the orbit path shows where the satellite is in the earth's shadow,  

DLR